This is the latest recevied weather packets stored in our database for station/object MB7UIK. If no packets are shown the sender has not sent any weather packets the latest 1 day(s).
| Time | Temp. | Humidity | Pressure | Rain* | Wind** | Luminosity | Snow |
|---|---|---|---|---|---|---|---|
| 1778046131 | 9.44° C | 100% | 1011.1 hPa | 0 mm | 3.58 m/s, 334° | - | - |
| 1778046105 | 9.44° C | 100% | 1011.1 hPa | 0 mm | 1.79 m/s, 285° | - | - |
| 1778046045 | 9.44° C | 100% | 1011.1 hPa | 0 mm | 3.13 m/s, 319° | - | - |
| 1778045985 | 9.44° C | 100% | 1011.1 hPa | 0 mm | 1.34 m/s, 351° | - | - |
| 1778045925 | 9.44° C | 100% | 1011.2 hPa | 0 mm | 1.34 m/s, 345° | - | - |
| 1778045865 | 9.44° C | 100% | 1011.2 hPa | 0 mm | 0.89 m/s, 281° | - | - |
| 1778045831 | 9.44° C | 100% | 1011.2 hPa | 0 mm | 0.89 m/s, 281° | - | - |
| 1778045805 | 9.44° C | 100% | 1011.2 hPa | 0 mm | 1.79 m/s, 321° | - | - |
| 1778045745 | 9.44° C | 100% | 1011.1 hPa | 0 mm | 1.34 m/s, 355° | - | - |
| 1778045685 | 9.44° C | 100% | 1011.1 hPa | 0 mm | 0.45 m/s, 291° | - | - |
| 1778045625 | 9.44° C | 100% | 1011.1 hPa | 0 mm | 2.68 m/s, 263° | - | - |
| 1778045565 | 9.44° C | 100% | 1011.1 hPa | 0 mm | 1.79 m/s, 317° | - | - |
| 1778045533 | 9.44° C | 100% | 1011.1 hPa | 0 mm | 1.79 m/s, 317° | - | - |
| 1778045505 | 9.44° C | 100% | 1011.1 hPa | 0 mm | 0.89 m/s, 292° | - | - |
| 1778045445 | 9.44° C | 100% | 1011.1 hPa | 0 mm | 0 m/s | - | - |
| 1778045386 | 9.44° C | 100% | 1011.1 hPa | 0 mm | 0.45 m/s, 306° | - | - |
| 1778045326 | 9.44° C | 100% | 1011.1 hPa | 0 mm | 0.45 m/s, 17° | - | - |
| 1778045265 | 9.44° C | 100% | 1011.1 hPa | 0 mm | 1.34 m/s, 360° | - | - |
| 1778045231 | 9.44° C | 100% | 1011.1 hPa | 0 mm | 1.34 m/s, 360° | - | - |
| 1778045205 | 9.44° C | 100% | 1011.1 hPa | 0 mm | 0.89 m/s, 11° | - | - |
| 1778045145 | 9.44° C | 100% | 1011 hPa | 0 mm | 0.45 m/s, 355° | - | - |
| 1778045085 | 9.44° C | 100% | 1011 hPa | 0 mm | 1.34 m/s, 338° | - | - |
| 1778045025 | 9.44° C | 100% | 1011 hPa | 0 mm | 1.34 m/s, 342° | - | - |
| 1778044965 | 9.44° C | 100% | 1011 hPa | 0 mm | 1.34 m/s, 339° | - | - |
| 1778044933 | 9.44° C | 100% | 1011 hPa | 0 mm | 1.34 m/s, 339° | - | - |
* Rain latest hour (hover to see other rain measurements)
** Current wind speed in m/s (hover to see current wind gust speed)